DAL2964 KBDL-KDTW

Flight info

Callsign DAL2964
Flight time N/A
Altitude 36000
Route CTR CAM Q822 GONZZ DONEO CUUGR2
Aircraft A320/M-SDE3FGHIRWY/LB1

Departure

Time 2026-05-06 16:39
Airport Bradley International Airport (KBDL)

Arrival

Time N/A
Airport Detroit Metropolitan Wayne County Airport (KDTW)
Time Latitude Longitude Altitude Speed Heading
2026-05-06 16:14 41.92943 -72.68106 205 ft 0 kts 315°
2026-05-06 16:28 41.92934 -72.68094 217 ft 2 kts 315°
2026-05-06 16:28 41.92922 -72.68078 208 ft 2 kts 315°
2026-05-06 16:28 41.92910 -72.68064 215 ft 2 kts
2026-05-06 16:28 41.92897 -72.68069 217 ft 0 kts 60°
2026-05-06 16:30 41.92907 -72.68046 214 ft 6 kts 62°
2026-05-06 16:31 41.92928 -72.67991 215 ft 6 kts 59°
2026-05-06 16:31 41.92962 -72.67936 209 ft 9 kts 47°
2026-05-06 16:31 41.93010 -72.67895 208 ft 9 kts 11°
2026-05-06 16:31 41.93074 -72.67938 205 ft 11 kts 315°
2026-05-06 16:32 41.93133 -72.68018 205 ft 14 kts 315°
2026-05-06 16:32 41.93213 -72.68126 205 ft 16 kts 314°
2026-05-06 16:32 41.93289 -72.68230 205 ft 15 kts 315°
2026-05-06 16:32 41.93363 -72.68330 205 ft 17 kts 314°
2026-05-06 16:33 41.93443 -72.68438 208 ft 17 kts 315°
2026-05-06 16:33 41.93523 -72.68548 212 ft 16 kts 314°
2026-05-06 16:33 41.93596 -72.68647 211 ft 14 kts 314°
2026-05-06 16:34 41.93724 -72.68698 214 ft 9 kts 42°
2026-05-06 16:34 41.93787 -72.68619 213 ft 15 kts 43°
2026-05-06 16:34 41.93870 -72.68516 215 ft 16 kts 42°
2026-05-06 16:34 41.93950 -72.68419 214 ft 15 kts 42°
2026-05-06 16:35 41.94029 -72.68324 210 ft 16 kts 42°
2026-05-06 16:35 41.94114 -72.68221 206 ft 18 kts 42°
2026-05-06 16:35 41.94211 -72.68103 215 ft 18 kts 42°
2026-05-06 16:35 41.94299 -72.67994 207 ft 17 kts 44°
2026-05-06 16:36 41.94392 -72.67870 212 ft 19 kts 44°
2026-05-06 16:36 41.94485 -72.67750 212 ft 18 kts 44°
2026-05-06 16:36 41.94568 -72.67640 208 ft 16 kts 44°
2026-05-06 16:36 41.94646 -72.67538 216 ft 15 kts 44°
2026-05-06 16:37 41.94715 -72.67448 207 ft 13 kts 44°
2026-05-06 16:37 41.94791 -72.67348 207 ft 17 kts 44°
2026-05-06 16:37 41.94871 -72.67242 208 ft 15 kts 44°
2026-05-06 16:37 41.94942 -72.67149 214 ft 13 kts 43°
2026-05-06 16:38 41.95005 -72.67147 213 ft 6 kts 329°
2026-05-06 16:38 41.95028 -72.67181 218 ft 7 kts 308°
2026-05-06 16:38 41.95041 -72.67243 215 ft 6 kts 255°
2026-05-06 16:38 41.94988 -72.67320 215 ft 28 kts 224°
2026-05-06 16:39 41.94665 -72.67746 216 ft 98 kts 224°
2026-05-06 16:39 41.94037 -72.68568 216 ft 151 kts 225°
2026-05-06 16:39 41.93279 -72.69565 818 ft 149 kts 223°
2026-05-06 16:39 41.92829 -72.70806 1596 ft 154 kts 257°
2026-05-06 16:40 41.93040 -72.72258 2189 ft 171 kts 293°
2026-05-06 16:40 41.93932 -72.73449 2668 ft 193 kts 323°
2026-05-06 16:40 41.95204 -72.74223 3160 ft 205 kts 327°
2026-05-06 16:40 41.96544 -72.75054 3534 ft 223 kts 325°
2026-05-06 16:41 41.98014 -72.75973 3861 ft 243 kts 326°
2026-05-06 16:41 41.99632 -72.76981 4184 ft 269 kts 327°
2026-05-06 16:41 42.01379 -72.78051 4852 ft 281 kts 327°
2026-05-06 16:41 42.03166 -72.79126 5630 ft 288 kts 326°
2026-05-06 16:42 42.05019 -72.80238 6409 ft 295 kts 327°
2026-05-06 16:42 42.06908 -72.81382 7151 ft 300 kts 326°
2026-05-06 16:42 42.08820 -72.82539 7975 ft 303 kts 326°
2026-05-06 16:42 42.10750 -72.83706 8660 ft 305 kts 326°
2026-05-06 16:43 42.12696 -72.84884 9389 ft 308 kts 326°
2026-05-06 16:43 42.14663 -72.86079 10103 ft 313 kts 326°
2026-05-06 16:43 42.16714 -72.87345 10352 ft 336 kts 326°
2026-05-06 16:43 42.18907 -72.88711 10484 ft 358 kts 326°
2026-05-06 16:44 42.21223 -72.90143 10864 ft 372 kts 327°
2026-05-06 16:44 42.23600 -72.91592 11520 ft 376 kts 327°
2026-05-06 16:44 42.25998 -72.93048 12241 ft 380 kts 328°
2026-05-06 16:44 42.28422 -72.94522 12971 ft 384 kts 327°
2026-05-06 16:45 42.30878 -72.95990 13709 ft 388 kts 328°
2026-05-06 16:45 42.33380 -72.97407 14386 ft 392 kts 329°
2026-05-06 16:45 42.35913 -72.98795 15053 ft 395 kts 329°
2026-05-06 16:45 42.38473 -73.00183 15709 ft 397 kts 329°
2026-05-06 16:46 42.41039 -73.01577 16368 ft 399 kts 329°
2026-05-06 16:46 42.43622 -73.02993 16995 ft 402 kts 329°
2026-05-06 16:46 42.46188 -73.04418 17595 ft 406 kts 329°
2026-05-06 16:46 42.48815 -73.05887 18205 ft 409 kts 329°
2026-05-06 16:47 42.51456 -73.07366 18720 ft 412 kts 329°
2026-05-06 16:47 42.54111 -73.08852 19245 ft 414 kts 329°
2026-05-06 16:47 42.56791 -73.10350 19756 ft 417 kts 329°
2026-05-06 16:47 42.59483 -73.11856 20269 ft 420 kts 329°
2026-05-06 16:48 42.62192 -73.13376 20803 ft 422 kts 329°
2026-05-06 16:48 42.64913 -73.14909 21285 ft 424 kts 329°
2026-05-06 16:48 42.67650 -73.16453 21798 ft 427 kts 329°
2026-05-06 16:48 42.70400 -73.18001 22262 ft 429 kts 329°
2026-05-06 16:49 42.73167 -73.19555 22707 ft 432 kts 329°
2026-05-06 16:49 42.75949 -73.21119 23159 ft 434 kts 330°
2026-05-06 16:49 42.78748 -73.22691 23607 ft 436 kts 329°
2026-05-06 16:49 42.81560 -73.24271 23980 ft 438 kts 329°
2026-05-06 16:50 42.84385 -73.25864 24349 ft 440 kts 329°
2026-05-06 16:50 42.87216 -73.27468 24670 ft 442 kts 329°
2026-05-06 16:50 42.90071 -73.29089 25005 ft 444 kts 329°
2026-05-06 16:50 42.92813 -73.30946 25357 ft 435 kts 319°
2026-05-06 16:51 42.95173 -73.33446 25661 ft 425 kts 307°
2026-05-06 16:51 42.97070 -73.36463 25982 ft 415 kts 296°
2026-05-06 16:51 42.98458 -73.39816 26306 ft 407 kts 287°
2026-05-06 16:51 42.99357 -73.43442 26628 ft 400 kts 277°
2026-05-06 16:52 42.99747 -73.47172 26950 ft 395 kts 268°
2026-05-06 16:52 42.99842 -73.50916 27269 ft 395 kts 267°
2026-05-06 16:52 42.99931 -73.54677 27566 ft 397 kts 267°
2026-05-06 16:52 43.00020 -73.58448 27876 ft 398 kts 267°
2026-05-06 16:53 43.00108 -73.62239 28161 ft 399 kts 267°
2026-05-06 16:53 43.00195 -73.66049 28463 ft 401 kts 267°
2026-05-06 16:53 43.00279 -73.69875 28650 ft 405 kts 266°
2026-05-06 16:53 43.00362 -73.73738 28878 ft 407 kts 266°
2026-05-06 16:54 43.00449 -73.77606 29165 ft 407 kts 266°
2026-05-06 16:54 43.00538 -73.81422 29513 ft 406 kts 266°
2026-05-06 16:54 43.00628 -73.85266 29890 ft 405 kts 266°
2026-05-06 16:54 43.00716 -73.89105 30242 ft 403 kts 266°
2026-05-06 16:55 43.00797 -73.92921 30563 ft 402 kts 266°
2026-05-06 16:55 43.00872 -73.96736 30865 ft 401 kts 266°
2026-05-06 16:55 43.00943 -74.00535 31192 ft 399 kts 266°
2026-05-06 16:55 43.01015 -74.04334 31465 ft 399 kts 266°
2026-05-06 16:56 43.01087 -74.08125 31727 ft 399 kts 266°
2026-05-06 16:56 43.01158 -74.11870 32015 ft 398 kts 266°
2026-05-06 16:56 43.01229 -74.15659 32310 ft 397 kts 266°
2026-05-06 16:56 43.01297 -74.19427 32608 ft 396 kts 266°
2026-05-06 16:57 43.01363 -74.23179 32913 ft 395 kts 266°
2026-05-06 16:57 43.01436 -74.26919 33213 ft 394 kts 268°
2026-05-06 16:57 43.01563 -74.30657 33525 ft 393 kts 269°
2026-05-06 16:57 43.01736 -74.34382 33834 ft 392 kts 269°
2026-05-06 16:58 43.01928 -74.38093 34149 ft 390 kts 269°
2026-05-06 16:58 43.02120 -74.41734 34458 ft 388 kts 269°
2026-05-06 16:58 43.02305 -74.45397 34753 ft 385 kts 269°
2026-05-06 16:58 43.02480 -74.49040 35040 ft 383 kts 269°
2026-05-06 16:59 43.02646 -74.52656 35331 ft 380 kts 269°
2026-05-06 16:59 43.02806 -74.56254 35595 ft 378 kts 269°
2026-05-06 16:59 43.02959 -74.59840 35763 ft 377 kts 269°
2026-05-06 17:00 43.03256 -74.66996 35810 ft 377 kts 269°
2026-05-06 17:00 43.03555 -74.74151 35796 ft 377 kts 269°
2026-05-06 17:01 43.03850 -74.81291 35809 ft 376 kts 269°
2026-05-06 17:01 43.04141 -74.88444 35807 ft 377 kts 269°
2026-05-06 17:02 43.04436 -74.95607 35812 ft 377 kts 269°
2026-05-06 17:02 43.04722 -75.02715 35818 ft 377 kts 269°
2026-05-06 17:03 43.04997 -75.09879 35823 ft 377 kts 270°
2026-05-06 17:03 43.05270 -75.17010 35850 ft 374 kts 270°
2026-05-06 17:04 43.05538 -75.24091 35866 ft 372 kts 270°
2026-05-06 17:04 43.05797 -75.31149 35868 ft 371 kts 270°
2026-05-06 17:05 43.06009 -75.38190 35872 ft 370 kts 269°
2026-05-06 17:05 43.06196 -75.45213 35869 ft 368 kts 269°
2026-05-06 17:06 43.06378 -75.52167 35858 ft 365 kts 269°
2026-05-06 17:06 43.06561 -75.59106 35855 ft 365 kts 269°
2026-05-06 17:07 43.06747 -75.66050 35856 ft 365 kts 269°
2026-05-06 17:07 43.06924 -75.72994 35853 ft 365 kts 269°
2026-05-06 17:08 43.07098 -75.79888 35887 ft 365 kts 269°
2026-05-06 17:08 43.07268 -75.86828 35875 ft 365 kts 269°
2026-05-06 17:09 43.07430 -75.93761 35879 ft 364 kts 269°
2026-05-06 17:09 43.07585 -76.00695 35875 ft 365 kts 269°
2026-05-06 17:10 43.07741 -76.07628 35871 ft 365 kts 269°
2026-05-06 17:10 43.07902 -76.14563 35898 ft 365 kts 269°
2026-05-06 17:11 43.08052 -76.21500 35890 ft 365 kts 269°
2026-05-06 17:11 43.08192 -76.28393 35882 ft 365 kts 269°
2026-05-06 17:12 43.08332 -76.35320 35875 ft 364 kts 269°
2026-05-06 17:12 43.08466 -76.42251 35874 ft 364 kts 269°
2026-05-06 17:13 43.08597 -76.49179 35873 ft 364 kts 269°
2026-05-06 17:13 43.08728 -76.56106 35898 ft 364 kts 269°
2026-05-06 17:14 43.08852 -76.63036 35889 ft 364 kts 269°
2026-05-06 17:14 43.08840 -76.69958 35893 ft 363 kts 262°
2026-05-06 17:15 43.08235 -76.76810 35890 ft 363 kts 262°
2026-05-06 17:15 43.07633 -76.83658 35891 ft 363 kts 262°
2026-05-06 17:16 43.07135 -76.89355 35900 ft 362 kts 262°
2026-05-06 17:16 43.06434 -76.97282 35920 ft 360 kts 262°
2026-05-06 17:17 43.05827 -77.04076 35926 ft 359 kts 262°
2026-05-06 17:17 43.05312 -77.09751 35925 ft 359 kts 262°
2026-05-06 17:18 43.04697 -77.16520 35911 ft 359 kts 262°
2026-05-06 17:18 43.04084 -77.23237 35930 ft 358 kts 262°
2026-05-06 17:19 43.03469 -77.29994 35917 ft 358 kts 262°
2026-05-06 17:19 43.02846 -77.36735 35911 ft 357 kts 262°
2026-05-06 17:20 43.02219 -77.43481 35908 ft 357 kts 262°
2026-05-06 17:20 43.01588 -77.50224 35920 ft 358 kts 262°
2026-05-06 17:21 43.00951 -77.56963 35922 ft 358 kts 262°
2026-05-06 17:21 43.00317 -77.63676 35924 ft 358 kts 262°
2026-05-06 17:22 42.99672 -77.70432 35919 ft 359 kts 262°
2026-05-06 17:22 42.99020 -77.77196 35912 ft 359 kts 261°
2026-05-06 17:23 42.98367 -77.83959 35909 ft 359 kts 262°
2026-05-06 17:23 42.97718 -77.90717 35893 ft 358 kts 262°
2026-05-06 17:24 42.97058 -77.97444 35932 ft 357 kts 261°
2026-05-06 17:24 42.96400 -78.04117 35929 ft 357 kts 261°
2026-05-06 17:25 42.95735 -78.10831 35926 ft 357 kts 261°
2026-05-06 17:25 42.95065 -78.17538 35923 ft 356 kts 261°
2026-05-06 17:26 42.94390 -78.24242 35910 ft 356 kts 261°
2026-05-06 17:26 42.93718 -78.30937 35910 ft 356 kts 261°
2026-05-06 17:27 42.93040 -78.37638 35910 ft 356 kts 261°
2026-05-06 17:27 42.92359 -78.44333 35912 ft 356 kts 261°
2026-05-06 17:28 42.91673 -78.51029 35918 ft 356 kts 261°
2026-05-06 17:28 42.90982 -78.57731 35924 ft 357 kts 261°
2026-05-06 17:29 42.90287 -78.64429 35921 ft 356 kts 261°
2026-05-06 17:29 42.89592 -78.71118 35939 ft 356 kts 261°
2026-05-06 17:30 42.88896 -78.77763 35908 ft 356 kts 261°
2026-05-06 17:30 42.88187 -78.84455 35852 ft 356 kts 261°
2026-05-06 17:31 42.87472 -78.91122 35897 ft 354 kts 261°
2026-05-06 17:31 42.86758 -78.97751 35903 ft 353 kts 261°
2026-05-06 17:32 42.86052 -79.04364 35906 ft 352 kts 261°
2026-05-06 17:32 42.85338 -79.10976 35926 ft 352 kts 261°
2026-05-06 17:33 42.84621 -79.17583 35920 ft 352 kts 261°
2026-05-06 17:33 42.83899 -79.24199 35917 ft 352 kts 261°
2026-05-06 17:34 42.83173 -79.30801 35917 ft 353 kts 261°
2026-05-06 17:34 42.82446 -79.37372 35915 ft 353 kts 261°
2026-05-06 17:35 42.81712 -79.43983 35940 ft 353 kts 261°
2026-05-06 17:35 42.80967 -79.50597 35918 ft 354 kts 261°
2026-05-06 17:36 42.79849 -79.60547 35918 ft 355 kts 260°
2026-05-06 17:36 42.79099 -79.67187 35918 ft 355 kts 260°
2026-05-06 17:37 42.78350 -79.73833 35916 ft 355 kts 261°
2026-05-06 17:37 42.77755 -79.80516 35943 ft 356 kts 262°
2026-05-06 17:38 42.77238 -79.87217 35908 ft 355 kts 263°
2026-05-06 17:38 42.76707 -79.93890 35922 ft 354 kts 262°
2026-05-06 17:39 42.76154 -80.00503 35927 ft 353 kts 262°
2026-05-06 17:39 42.75583 -80.07141 35919 ft 353 kts 262°
2026-05-06 17:40 42.75008 -80.13764 35921 ft 352 kts 262°
2026-05-06 17:40 42.74433 -80.20385 35939 ft 352 kts 262°
2026-05-06 17:41 42.73859 -80.27015 35933 ft 353 kts 262°
2026-05-06 17:41 42.73278 -80.33645 35924 ft 353 kts 262°
2026-05-06 17:42 42.72751 -80.40250 35842 ft 354 kts 264°
2026-05-06 17:42 42.72592 -80.43594 35592 ft 354 kts 265°
2026-05-06 17:42 42.72475 -80.46940 35353 ft 354 kts 265°
2026-05-06 17:43 42.72369 -80.50277 35109 ft 353 kts 265°
2026-05-06 17:43 42.72253 -80.53616 34871 ft 353 kts 265°
2026-05-06 17:43 42.72125 -80.56956 34663 ft 354 kts 265°
2026-05-06 17:43 42.71986 -80.60293 34435 ft 354 kts 265°
2026-05-06 17:44 42.71839 -80.63632 34206 ft 354 kts 265°
2026-05-06 17:44 42.71690 -80.66970 33972 ft 354 kts 265°
2026-05-06 17:44 42.71540 -80.70307 33715 ft 354 kts 265°
2026-05-06 17:44 42.71389 -80.73649 33444 ft 354 kts 265°
2026-05-06 17:45 42.71237 -80.77002 33186 ft 355 kts 265°
2026-05-06 17:45 42.71082 -80.80362 32917 ft 356 kts 264°
2026-05-06 17:45 42.70924 -80.83731 32653 ft 358 kts 264°
2026-05-06 17:45 42.70768 -80.87066 32397 ft 359 kts 264°
2026-05-06 17:46 42.70612 -80.90460 32139 ft 360 kts 264°
2026-05-06 17:46 42.70457 -80.93865 31908 ft 363 kts 264°
2026-05-06 17:46 42.70300 -80.97297 31651 ft 365 kts 264°
2026-05-06 17:46 42.70141 -81.00745 31397 ft 366 kts 264°
2026-05-06 17:47 42.69977 -81.04211 31149 ft 368 kts 264°
2026-05-06 17:47 42.69810 -81.07685 30914 ft 369 kts 264°
2026-05-06 17:47 42.69639 -81.11176 30665 ft 371 kts 264°
2026-05-06 17:47 42.69467 -81.14686 30422 ft 372 kts 264°
2026-05-06 17:48 42.69296 -81.18201 30188 ft 373 kts 264°
2026-05-06 17:48 42.69125 -81.21731 29942 ft 375 kts 264°